Regional Weather Roundup
Issued by NWS

Home | Current Version | Previous Version | Text Only | Print | Product List | Glossary On
Versions: 1 2 3 4 5 6 7 8 9 10 11 12 13 14 15 16 17 18 19 20 21 22 23 24 25 26 27 28 29 30 31 32 33 34 35 36 37 38 39 40 41 42 43 44 45 46 47 48 49 50
000
ASCA44 KEWX 200120
RWRMX

LATIN AMERICA AND CARIBBEAN REGIONAL WEATHER ROUNDUP
NATIONAL WEATHER SERVICE AUSTIN/SAN ANTONIO TX
700 PM CST FRI DEC 19 2014

NOTE: "FAIR" INDICATED FEW OR NO CLOUDS BELOW 12,000 FEET WITH NO
SIGNIFICANT WEATHER AND/OR OBSTRUCTIONS TO VISIBILITY.

BAJA CALIFORNIA

CITY           SKY/WX    TMP DP  RH WIND       PRES   REMARKS
LORETO         CLEAR     68  55  64 N12       30.00R
LA PAZ         CLEAR     70  52  52 NE9       30.01
MEXICALI       PTCLDY    63  43  48 NW5       30.15
S.J. DEL CABO  PTCLDY    70  57  64 N6        29.97R
TIJUANA        MOCLDY    61  46  59 NW5       30.16F

NORTHWESTERN MEXICO

CITY           SKY/WX    TMP DP  RH WIND       PRES   REMARKS
CULIACAN       CLEAR     75  55  50 W8        29.93
DURANGO        CLEAR     61  14  16 S8        30.10R
GUAYMAS        CLEAR     70  48  46 W12       29.96
HERMOSILLO     CLEAR     66  32  28 CALM      30.03R
CD. JUAREZ     CLEAR     48  34  57 CALM      30.10
LOS MOCHIS     CLEAR     68  52  56 NW12      29.98
OBREGON        CLEAR     68  43  40 W10       29.94

NORTHEASTERN MEXICO

CITY           SKY/WX    TMP DP  RH WIND       PRES   REMARKS
CHIHUAHUA      CLEAR     46  23  39 N8        30.14  WCI  42
MATAMOROS      CLOUDY    61  59  94 NW14      30.08
MONTERREY      MOCLDY    63  57  82 SW2       30.06R
NUEVO LAREDO   CLEAR     59  55  88 CALM      30.09
PIEDRAS NEGRAS CLEAR     59  54  82 CALM      30.10R
REYNOSA        MOCLDY    59  54  82 N9        30.07
SALTILLO       CLEAR     54  45  71 N12       30.15R
TORREON        PTCLDY    63  27  25 CALM      30.08R
CD. VICTORIA   MOCLDY    66  61  82 NW9       30.04

WESTERN MEXICO

CITY           SKY/WX    TMP DP  RH WIND       PRES   REMARKS
AGUASCALIENTES CLEAR     61  16  17 SW9       30.15
COLIMA         CLEAR     72  63  73 W12       29.99R
DEL BAJIO      PTCLDY    68  36  30 SW7       30.20R
GUADALAJARA    CLEAR     70  37  30 W5        30.09
MANZANILLO     PTCLDY    79  72  78 CALM      29.83R
MAZATLAN       PTCLDY    66  54  63 W10       29.89R
URUAPAN        CLEAR     68  54  60 CALM      30.15R
ZACATECAS      PTCLDY    57  14  18 SW12      30.17R

CENTRAL MEXICO

CITY           SKY/WX    TMP DP  RH WIND       PRES   REMARKS
CUERNAVACA     CLEAR     77  48  36 CALM      30.05R
MEXICO CITY    CLEAR     68  46  45 SE13      30.23R
MORELIA        PTCLDY    64  45  48 S8        30.15R
POZA RICA      MOCLDY    75  66  73 NE7       29.99R
PUEBLA         CLEAR     57  45  62 S9        30.25R
QUERETARO      MOCLDY    66  36  32 NW6       30.20R
S. LUIS POTOSI MOCLDY    70  28  21 W5        30.11R
TAMPICO        PTCLDY    73  68  83 E7        29.96R
TOLUCA         PTCLDY    57  46  67 CALM      30.34R

SOUTHERN MEXICO

CITY           SKY/WX    TMP DP  RH WIND       PRES   REMARKS
ACAPULCO       CLEAR     79  72  78 W7        29.84R
B. DE HUATULCO MOCLDY    77  72  83 CALM      29.91  HAZE
OAXACA         MOCLDY    72  48  43 SE7       30.11R
P. ESCONDIDO   CLEAR     81  73  78 S12       30.00S
VERACRUZ       CLEAR     73  68  83 E5        29.91R
ZIHUATANEJO    PTCLDY    79  72  78 W5        29.87R

YUCATAN PENINSULA

CITY           SKY/WX    TMP DP  RH WIND       PRES   REMARKS
CAMPECHE       PTCLDY    75  72  88 N12       29.91R
CANCUN         MOCLDY    77  75  94 E6        29.94S
CHETUMAL       RAIN      75  72  88 CALM      29.90R VSB 1
CD. DEL CARMEN CLEAR     77  72  83 NE7       29.90
COZUMEL        LGT RAIN  72  72 100 E8        29.93R
MERIDA         MOCLDY    81  70  69 CALM      29.94R
MINATITLAN     CLEAR     75  68  78 CALM      29.87
TAPACHULA      PTCLDY    82  73  74 CALM      29.88R
TUX. GUTIERREZ CLEAR     77  64  65 W6        29.90R
VILLAHERMOSA   CLEAR     73  70  88 CALM      29.90R

CENTRAL AMERICA

CITY           SKY/WX    TMP DP  RH WIND       PRES   REMARKS
MANAGUA          N/A     81  72  74 SE7       29.83R

CARIBBEAN

CITY           SKY/WX    TMP DP  RH WIND       PRES   REMARKS
ARUBA          PTCLDY    81  73  78 E12       29.89R
CURACAO        PTCLDY    79  70  73 SE7       29.92R
KINGSTON       PTCLDY    79  72  78 NE7       29.94R
NASSAU         PTCLDY    70  61  73 CALM      30.08R
SAN JUAN       PTCLDY    79  72  78 E8        30.01R
SANTO DOMINGO  PTCLDY    75  70  83 N6        29.97S
ST. CROIX      CLEAR     73  70  88 N6        30.01
ST. KITTS      PTCLDY    77  73  88 E12       29.97S
ST. THOMAS     CLEAR     75  68  78 E3        30.01R

$$




USA.gov is the U.S. government's official web portal to all federal, state and local government web resources and services.